Weather reports worldwide

Advertisment
Newton Rigg, United Kingdom (99152): temperature & dewpoint: 04.07.2020 05:00:00 - 10.07.2020 05:00:00 (BST)Newton Rigg, United Kingdom (99152): temperature -20cm & temperature -100cm: 04.07.2020 05:00:00 - 10.07.2020 05:00:00 (BST)Newton Rigg, United Kingdom (99152): precipitation: 04.07.2020 05:00:00 - 10.07.2020 05:00:00 (BST)
Date & Time tt [°C] td [°C] tt -20cm [°C] tt -100cm [°C] rr [mm]
10.07.2020 05:00:00 - - - - -
10.07.2020 04:00:00 8,9 7,8 - - 0,0
10.07.2020 03:00:00 9,1 7,9 - - 0,0
10.07.2020 02:00:00 9,7 8,8 - - 0,0
10.07.2020 01:00:00 10,6 10,1 - - 0,0
10.07.2020 00:00:00 10,6 10,0 - - 0,0
09.07.2020 23:00:00 10,6 9,8 - - 0,0
09.07.2020 22:00:00 11,4 10,3 - - 0,0
09.07.2020 21:00:00 13,0 10,5 - - 0,0
09.07.2020 20:00:00 14,3 9,3 - - 0,0
09.07.2020 19:00:00 15,7 9,9 - - 0,0
09.07.2020 18:00:00 15,5 9,3 - - 0,0
09.07.2020 17:00:00 16,9 9,7 - - 0,0
09.07.2020 16:00:00 15,9 8,7 - - 0,0
09.07.2020 15:00:00 15,5 8,7 - - 0,0
09.07.2020 14:00:00 15,3 8,7 - - 0,0
09.07.2020 13:00:00 14,8 8,5 - - 0,0
09.07.2020 12:00:00 14,2 9,0 - - 0,0
09.07.2020 11:00:00 13,4 8,1 - - 0,0
09.07.2020 10:00:00 13,5 8,6 14,0 13,0 0,0
09.07.2020 09:00:00 11,7 9,1 - - 0,0
09.07.2020 08:00:00 10,6 9,3 - - 0,0
09.07.2020 07:00:00 10,0 9,3 - - 0,0
09.07.2020 06:00:00 10,0 9,5 - - 0,0
09.07.2020 05:00:00 9,7 9,1 - - 0,0
09.07.2020 04:00:00 9,8 9,1 - - 0,0
09.07.2020 03:00:00 9,9 9,1 - - 0,0
09.07.2020 02:00:00 10,1 9,1 - - 0,0
09.07.2020 01:00:00 10,1 9,1 - - 0,0
09.07.2020 00:00:00 10,5 9,6 - - 0,0
08.07.2020 23:00:00 10,7 9,8 - - 0,0
08.07.2020 22:00:00 11,4 10,5 - - 0,0
08.07.2020 21:00:00 11,8 10,7 - - 0,0
08.07.2020 20:00:00 12,1 10,7 - - 0,0
08.07.2020 19:00:00 12,4 10,9 - - 0,0
08.07.2020 18:00:00 12,8 10,5 - - 0,0
08.07.2020 17:00:00 14,0 9,6 - - 0,0
08.07.2020 16:00:00 14,7 9,4 - - 0,0
08.07.2020 15:00:00 15,0 9,3 - - 0,0
08.07.2020 14:00:00 15,7 8,8 - - 0,0
08.07.2020 13:00:00 16,3 9,4 - - 0,0
08.07.2020 12:00:00 15,7 7,4 - - 0,0
08.07.2020 11:00:00 16,6 9,1 - - 0,0
08.07.2020 10:00:00 14,8 9,2 14,0 13,0 0,0
08.07.2020 09:00:00 13,6 9,2 - - 0,0
08.07.2020 08:00:00 12,5 11,6 - - 0,0
08.07.2020 07:00:00 9,1 8,9 - - 0,0
08.07.2020 06:00:00 6,9 6,4 - - 0,0
08.07.2020 05:00:00 6,2 5,5 - - 0,0
08.07.2020 04:00:00 7,4 6,6 - - 0,0
08.07.2020 03:00:00 8,9 7,9 - - 0,2
08.07.2020 02:00:00 9,9 9,0 - - 0,0
08.07.2020 01:00:00 10,0 9,1 - - 0,0
08.07.2020 00:00:00 10,1 9,2 - - 0,0
07.07.2020 23:00:00 10,2 9,1 - - 0,0
07.07.2020 22:00:00 10,7 9,1 - - 0,0
07.07.2020 21:00:00 11,5 9,1 - - 0,0
07.07.2020 20:00:00 12,2 8,8 - - 0,0
07.07.2020 19:00:00 12,7 8,4 - - 0,0
07.07.2020 18:00:00 13,0 8,4 - - 0,0
07.07.2020 17:00:00 13,2 8,9 - - 0,0
07.07.2020 16:00:00 13,0 8,5 - - 0,0
07.07.2020 15:00:00 12,7 7,9 - - 0,0
07.07.2020 14:00:00 13,1 8,1 - - 0,0
07.07.2020 13:00:00 12,5 8,4 - - 0,0
07.07.2020 12:00:00 11,9 8,9 - - 0,0
07.07.2020 11:00:00 12,1 7,4 - - 0,0
07.07.2020 10:00:00 12,1 7,8 14,2 13,0 0,0
07.07.2020 09:00:00 12,0 9,1 - - 0,0
07.07.2020 08:00:00 11,6 8,9 - - 0,0
07.07.2020 07:00:00 10,9 9,1 - - 0,0
07.07.2020 06:00:00 9,7 8,3 - - 0,0
07.07.2020 05:00:00 9,5 8,0 - - 0,0
07.07.2020 04:00:00 10,2 7,5 - - 0,0
07.07.2020 03:00:00 10,5 7,7 - - 0,0
07.07.2020 02:00:00 10,3 7,7 - - 0,0
07.07.2020 01:00:00 10,7 7,4 - - 0,0
07.07.2020 00:00:00 10,3 6,7 - - 0,0
06.07.2020 23:00:00 10,6 6,7 - - 0,0
06.07.2020 22:00:00 11,0 7,2 - - 0,0
06.07.2020 21:00:00 12,1 7,2 - - 0,0
06.07.2020 20:00:00 13,7 7,9 - - 0,0
06.07.2020 19:00:00 14,8 7,9 - - 0,0
06.07.2020 18:00:00 14,4 8,2 - - 0,0
06.07.2020 17:00:00 15,0 7,1 - - 0,0
06.07.2020 16:00:00 16,3 6,5 - - 0,0
06.07.2020 15:00:00 16,9 7,2 - - 0,0
06.07.2020 14:00:00 16,2 8,2 - - 0,0
06.07.2020 13:00:00 14,9 7,9 - - 0,0
06.07.2020 12:00:00 14,3 8,5 - - 0,0
06.07.2020 11:00:00 13,8 9,1 - - 0,0
06.07.2020 10:00:00 14,4 8,2 14,2 13,0 0,0
06.07.2020 09:00:00 13,5 9,1 - - 0,0
06.07.2020 08:00:00 12,3 8,9 - - 0,0
06.07.2020 07:00:00 11,5 9,4 - - 0,0
06.07.2020 06:00:00 10,5 9,3 - - 0,0
06.07.2020 05:00:00 10,5 8,8 - - 0,0
06.07.2020 04:00:00 10,9 8,0 - - 0,0
06.07.2020 03:00:00 10,6 8,1 - - 0,0
06.07.2020 02:00:00 10,7 7,8 - - 0,0
06.07.2020 01:00:00 10,6 7,7 - - 0,0
06.07.2020 00:00:00 10,4 7,8 - - 0,0
05.07.2020 23:00:00 10,9 7,7 - - 0,0
05.07.2020 22:00:00 10,8 8,3 - - 0,0
05.07.2020 21:00:00 10,8 8,1 - - 0,0
05.07.2020 20:00:00 10,6 8,1 - - 0,0
05.07.2020 19:00:00 10,1 7,3 - - 0,2
05.07.2020 18:00:00 11,0 9,0 - - 0,0
05.07.2020 17:00:00 14,1 8,4 - - 0,0
05.07.2020 16:00:00 14,6 8,0 - - 0,0
05.07.2020 15:00:00 14,8 9,1 - - 0,0
05.07.2020 14:00:00 14,5 9,0 - - 0,0
05.07.2020 13:00:00 13,6 7,4 - - 0,0
05.07.2020 12:00:00 12,7 8,0 - - 0,0
05.07.2020 11:00:00 12,8 7,6 - - 0,0
05.07.2020 10:00:00 11,9 7,7 14,5 13,0 0,0
05.07.2020 09:00:00 12,3 8,1 - - 0,0
05.07.2020 08:00:00 11,8 8,3 - - 0,0
05.07.2020 07:00:00 12,1 8,2 - - 0,0
05.07.2020 06:00:00 13,0 9,5 - - 0,0
05.07.2020 05:00:00 13,0 9,8 - - 0,0
05.07.2020 04:00:00 14,3 12,9 - - 0,0
05.07.2020 03:00:00 15,0 13,5 - - 0,0
05.07.2020 02:00:00 15,4 13,6 - - 0,0
05.07.2020 01:00:00 15,4 13,9 - - 0,2
05.07.2020 00:00:00 14,7 13,6 - - 0,0
04.07.2020 23:00:00 15,1 13,9 - - 0,0
04.07.2020 22:00:00 14,9 14,0 - - 0,0
04.07.2020 21:00:00 14,8 13,4 - - 0,0
04.07.2020 20:00:00 15,5 13,1 - - 0,0
04.07.2020 19:00:00 16,0 12,9 - - 0,0
04.07.2020 18:00:00 16,6 13,5 - - 0,0
04.07.2020 17:00:00 16,4 13,6 - - 0,0
04.07.2020 16:00:00 16,1 13,2 - - 0,2
04.07.2020 15:00:00 16,1 13,6 - - 0,0
04.07.2020 14:00:00 16,2 13,3 - - 0,0
04.07.2020 13:00:00 16,9 13,4 - - 0,0
04.07.2020 12:00:00 16,5 14,0 - - 0,0
04.07.2020 11:00:00 16,2 14,2 - - 0,2
04.07.2020 10:00:00 15,4 14,7 14,2 12,9 0,0
04.07.2020 09:00:00 14,4 14,1 - - 0,0
04.07.2020 08:00:00 13,3 13,1 - - 0,0
04.07.2020 07:00:00 12,6 12,4 - - 0,0
04.07.2020 06:00:00 12,4 12,1 - - 0,2
04.07.2020 05:00:00 12,1 11,8 - - 0,0

tt = temperature
td = dewpoint
tt -20cm = temperature -20cm
tt -100cm = temperature -100cm
rr = precipitation

Next stations